ATLAS 5 CENTAUR DEB, 50214

Orbit data source: Space-Track

ATLAS 5 CENTAUR DEB, 50214 is space debris in GEO originally from a launch on Tue, 07 Dec 2021 UTC launched from the Air Force Eastern Test Range (AFETR). Debris objects in space refer to the collection of defunct objects orbiting the Earth. Examples of debris include non-operational satellites, rocket bodies, and fragments generated from explosions, collisions, or faulty payload assembly.

Not visible in the next 10 days
ATLAS 5 CENTAUR DEB details
Identifier
50214, 2021-118D
Orbit
GEO
Last TLE update1 day ago
Origin
Flag of USAFRL/RV (US)
ManufacturerNGIS/HARRL3?
MissionDefense Technology
Bus & MotorESPASAT, Unknown motor
Mass~100 kg wet, 80 kg dry
Launch date (UTC)
2021-12-07 (3 years ago)
Launch vehicleUnknown
Launch site
Air Force Eastern Test Range (AFETR)
Object type
Payload
Rocket body
Debris
Shape & HBRUnknown
Radar Cross Section0.600 m², Large (>1 m²)

Expand to show TLE details & history

TLE from 1 day ago
0 ATLAS 5 CENTAUR DEB
1 50214U 21118D   24347.61568899 -.00000299  00000-0  00000-0 0  9998
2 50214   2.8805  84.5157 0012108  40.8799 318.7362  0.99332202 10940
Epoch: 2024-12-12T14:46Z
Definitive object data (Epoch: 2024-12-12T14:46:35.528Z)
Latitude-0.00001°
Longitude140.58933°
Altitude36,012.846 km
Speed3.068 km/s
True Right ascension05h 36m 07s
True Declination0° 00' 00"
Sunlit
Object was in daylight at TLE epoch
Visualization TLE readout
Latitude2.66426°
Longitude-107.05111°
Altitude36,034.846 km
Speed3.066 km/s
Apparent Right ascension12h 43m 33s
Apparent Declination-2° 40' 44"
Sunlit
Object is in daylight
Visualization observer readout
Local Sidereal Time20:59:35
Azimuth291.287° WNW
Elevation-27.289°
Doppler factor1
Orbital elements
Apogee altitude36,104.504 km
Perigee altitude36,001.753 km
Semi-major axis42,431.265 km
Eccentricity0.0012108
Inclination2.8805°
RAAN84.5157°
Arg. of periapsis40.8799°
True anomaly318.64459°
Mean anomaly318.7362°
Eccentric anomaly318.6904°
Mean motion0.24832 °/min
BSTARUnknown
Orbital period1449.73 mins
Loading historical data...
50214 neighbors
Authenticating...
Loading maneuver chart data...
Loading historical data...
Loading historical data...
Loading historical data...
Loading historical data...
Loading historical data...
Loading historical data...
Loading historical data...
Other satellites on launch #118 in the year 2021 (2021-12-07 UTC)

ATLAS 5 CENTAUR DEB Visibility forecast

Observer location: undefined°, undefined

ATLAS 5 CENTAUR DEB is not visible in the next 10 days
Span
Click to sort rows by Start time (UTC) header in descending order
Start Az.
Max El. time (UTC)
Max El. Az.
Max El.
End time (UTC)
End Az.
|